Home   Weather   Anchorage   Past weeks

Flag for USA Past Weather in Anchorage, Alaska, USA — Yesterday and Last 2 Weeks

Now
52 °F

Sunny.


Feels Like: 52 °F
Forecast: 36 / 51 °F
Wind: No wind

Location: Lake Hood Seaplane

Current Time: Sep 29, 2016 at 5:39:45 PM

Latest Report: Sep 29, 2016 at 4:53 PM


Visibility: 10 mi

Pressure: 30.54 "Hg

Humidity: 57%

Dew Point: 37 °F

Location of AnchorageLocation

Past Weather in Anchorage — Graph

°F

Anchorage Temperature Yesterday

Maximum temperature yesterday: 53 °F (at 3:53 PM)
Minimum temperature yesterday: 34 °F (at 6:53 AM)
Average temperature yesterday: 43 °F

High & Low Weather Summary for the Past Weeks

 TemperatureHumidityPressure
High61 °F (Sep 20, 1:53 PM)100% (Sep 22, 8:53 AM)30.58 "Hg (Sep 22, 8:53 AM)
Low34 °F (Sep 28, 6:53 AM)39% (Sep 19, 4:53 PM)28.84 "Hg (Sep 22, 6:53 AM)
Average49 °F76%29.74 "Hg
* Reported Sep 14 3:53 PM — Sep 29 3:53 PM, Anchorage, Weather by CustomWeather, © 2016

Note: Actual official high and low records may vary slightly from our data, if they occured in-between our weather recording intervals... More about our weather records

Advertising

Anchorage Weather History for the Previous 24 Hours

Scroll right to see more
 ConditionsComfort  
Time TempWeatherWind HumidityBarometerVisibility
3:53 PM
Thu, Sep 29
52 °FSunny.5 mph57%30.55 "Hg10 mi
2:53 PM51 °FSunny.3 mph61%30.56 "Hg10 mi
1:53 PM49 °FSunny.5 mph66%30.57 "Hg10 mi
12:53 PM47 °FSunny.3 mph69%30.58 "Hg10 mi
11:53 AM45 °FSunny.5 mph76%30.58 "Hg10 mi
10:53 AM42 °FSunny.3 mph85%30.57 "Hg10 mi
9:53 AM40 °FSunny.8 mph89%30.56 "Hg10 mi
8:53 AM38 °FSunny.6 mph97%30.55 "Hg10 mi
7:53 AM37 °FClear.3 mph96%30.55 "Hg10 mi
6:53 AM38 °FClear.No wind97%30.54 "Hg10 mi
5:53 AM37 °FClear.No wind96%30.53 "Hg10 mi
4:53 AM39 °FClear.No wind96%30.52 "Hg10 mi
3:53 AM40 °FClear.3 mph93%30.52 "Hg10 mi
2:53 AM40 °FClear.3 mph93%30.50 "Hg10 mi
1:53 AM39 °FClear.No wind96%30.49 "Hg10 mi
12:53 AM40 °FClear.No wind93%30.48 "Hg10 mi
11:53 PM
Wed, Sep 28
41 °FClear.No wind96%30.47 "Hg10 mi
10:53 PM41 °FClear.No wind96%30.45 "Hg10 mi
9:53 PM43 °FPassing clouds.No wind89%30.45 "Hg10 mi
8:53 PM46 °FClear.No wind79%30.43 "Hg10 mi
7:53 PM46 °FClear.No wind79%30.42 "Hg10 mi
6:53 PM49 °FSunny.3 mph74%30.42 "Hg10 mi
5:53 PM52 °FSunny.3 mph66%30.41 "Hg10 mi
Weather by CustomWeather, © 2016

See weather overviewHow to use our weather pages